Location: ???????
(54.6339°N, 39.4245°E)
Time: 03:54:23
(UTC+00:00)

PSLV R/B - Pass Details

Date: 19 May 2025
Orbit: 586 x 683 km, 97.9° (Epoch: 15 June)

Event Time Altitude Azimuth Distance (km) Brightness Sun altitude
Rises 21:00:58 0° 16° (NNE) 2,857 8.4 -15.3°
Reaches altitude 10° 21:03:10 10° 19° (NNE) 1,941 7.2 -15.3°
Maximum altitude 21:07:21 67° 103° (ESE) 645 3.5 -15.4°
Enters shadow 21:09:25 28° 178° (S) 1,110 4.3 -15.4°
